Year,Month,Day,Hour,Minute,Value (Times are PST for windgust in km/hr)
2014,10,22,00,00,62.70
2014,10,22,00,01,59.50
2014,10,22,00,02,56.30
2014,10,22,00,03,54.70
2014,10,22,00,04,56.30
2014,10,22,00,05,72.40
2014,10,22,00,06,75.60
2014,10,22,00,07,66.00
2014,10,22,00,08,70.80
2014,10,22,00,09,62.70
2014,10,22,00,10,57.90
2014,10,22,00,11,64.40
2014,10,22,00,12,53.10
2014,10,22,00,13,61.20
2014,10,22,00,14,49.90
2014,10,22,00,15,59.50
2014,10,22,00,16,61.20
2014,10,22,00,17,74.00
2014,10,22,00,18,67.60
2014,10,22,00,19,64.40
2014,10,22,00,20,59.50
2014,10,22,00,21,61.20
2014,10,22,00,22,57.90
2014,10,22,00,23,49.90
2014,10,22,00,24,69.20
2014,10,22,00,25,69.20
2014,10,22,00,26,51.50
2014,10,22,00,27,64.40
2014,10,22,00,28,67.60
2014,10,22,00,29,61.20
2014,10,22,00,30,64.40
2014,10,22,00,31,49.90
2014,10,22,00,32,61.20
2014,10,22,00,33,53.10
2014,10,22,00,34,49.90
2014,10,22,00,35,61.20
2014,10,22,00,36,66.00
2014,10,22,00,37,51.50
2014,10,22,00,38,56.30
2014,10,22,00,39,51.50
2014,10,22,00,40,62.70
2014,10,22,00,41,53.10
2014,10,22,00,42,49.90
2014,10,22,00,43,56.30
2014,10,22,00,44,51.50
2014,10,22,00,45,46.70
2014,10,22,00,46,54.70
2014,10,22,00,47,45.10
2014,10,22,00,48,64.40
2014,10,22,00,49,48.30
2014,10,22,00,50,59.50
2014,10,22,00,51,54.70
2014,10,22,00,52,46.70
2014,10,22,00,53,40.20
2014,10,22,00,54,61.20
2014,10,22,00,55,46.70
2014,10,22,00,56,51.50
2014,10,22,00,57,35.40
2014,10,22,00,58,35.40
2014,10,22,00,59,48.30
2014,10,22,01,00,29.00
2014,10,22,01,01,45.10
2014,10,22,01,02,48.30
2014,10,22,01,03,38.60
2014,10,22,01,04,35.40
2014,10,22,01,05,41.80
2014,10,22,01,06,38.60
2014,10,22,01,07,33.80
2014,10,22,01,08,38.60
2014,10,22,01,09,56.30
2014,10,22,01,10,25.70
2014,10,22,01,11,45.10
2014,10,22,01,12,40.20
2014,10,22,01,13,48.30
2014,10,22,01,14,43.50
2014,10,22,01,15,48.30
2014,10,22,01,16,46.70
2014,10,22,01,17,49.90
2014,10,22,01,18,51.50
2014,10,22,01,19,45.10
2014,10,22,01,20,51.50
2014,10,22,01,21,41.80
2014,10,22,01,22,38.60
2014,10,22,01,23,48.30
2014,10,22,01,24,43.50
2014,10,22,01,25,40.20
2014,10,22,01,26,43.50
2014,10,22,01,27,40.20
2014,10,22,01,28,33.80
2014,10,22,01,29,43.50
2014,10,22,01,30,48.30
2014,10,22,01,31,45.10
2014,10,22,01,32,53.10
2014,10,22,01,33,48.30
2014,10,22,01,34,54.70
2014,10,22,01,35,57.90
2014,10,22,01,36,54.70
2014,10,22,01,37,54.70
2014,10,22,01,38,51.50
2014,10,22,01,39,49.90
2014,10,22,01,40,59.50
2014,10,22,01,41,40.20
2014,10,22,01,42,53.10
2014,10,22,01,43,38.60
2014,10,22,01,44,46.70
2014,10,22,01,45,53.10
2014,10,22,01,46,51.50
2014,10,22,01,47,48.30
2014,10,22,01,48,53.10
2014,10,22,01,49,29.00
2014,10,22,01,50,48.30
2014,10,22,01,51,62.70
2014,10,22,01,52,49.90
2014,10,22,01,53,41.80
2014,10,22,01,54,40.20
2014,10,22,01,55,48.30
2014,10,22,01,56,43.50
2014,10,22,01,57,22.50
2014,10,22,01,58,27.40
2014,10,22,01,59,14.50
2014,10,22,02,00,11.30
2014,10,22,02,01,11.30
2014,10,22,02,02,6.40
2014,10,22,02,03,6.40
2014,10,22,02,04,6.40
2014,10,22,02,05,4.80
2014,10,22,02,06,3.20
2014,10,22,02,07,3.20
2014,10,22,02,08,3.20
2014,10,22,02,09,3.20
2014,10,22,02,10,6.40
2014,10,22,02,11,4.80
2014,10,22,02,12,8.10
2014,10,22,02,13,4.80
2014,10,22,02,14,6.40
2014,10,22,02,15,14.50
2014,10,22,02,16,16.10
2014,10,22,02,17,17.70
2014,10,22,02,18,25.70
2014,10,22,02,19,22.50
2014,10,22,02,20,19.30
2014,10,22,02,21,19.30
2014,10,22,02,22,9.60
2014,10,22,02,23,12.90
2014,10,22,02,24,11.30
2014,10,22,02,25,16.10
2014,10,22,02,26,16.10
2014,10,22,02,27,16.10
2014,10,22,02,28,12.90
2014,10,22,02,29,14.50
2014,10,22,02,30,14.50
2014,10,22,02,31,14.50
2014,10,22,02,32,22.50
2014,10,22,02,33,24.20
2014,10,22,02,34,24.20
2014,10,22,02,35,19.30
2014,10,22,02,36,20.90
2014,10,22,02,37,19.30
2014,10,22,02,38,17.70
2014,10,22,02,39,14.50
2014,10,22,02,40,17.70
2014,10,22,02,41,19.30
2014,10,22,02,42,16.10
2014,10,22,02,43,25.70
2014,10,22,02,44,27.40
2014,10,22,02,45,24.20
2014,10,22,02,46,29.00
2014,10,22,02,47,22.50
2014,10,22,02,48,20.90
2014,10,22,02,49,19.30
2014,10,22,02,50,29.00
2014,10,22,02,51,16.10
2014,10,22,02,52,20.90
2014,10,22,02,53,17.70
2014,10,22,02,54,19.30
2014,10,22,02,55,14.50
2014,10,22,02,56,12.90
2014,10,22,02,57,11.30
2014,10,22,02,58,16.10
2014,10,22,02,59,17.70
2014,10,22,03,00,16.10
2014,10,22,03,01,19.30
2014,10,22,03,02,14.50
2014,10,22,03,03,16.10
2014,10,22,03,04,12.90
2014,10,22,03,05,16.10
2014,10,22,03,06,16.10
2014,10,22,03,07,17.70
2014,10,22,03,08,14.50
2014,10,22,03,09,9.60
2014,10,22,03,10,11.30
2014,10,22,03,11,11.30
2014,10,22,03,12,14.50
2014,10,22,03,13,9.60
2014,10,22,03,14,6.40
2014,10,22,03,15,4.80
2014,10,22,03,16,4.80
2014,10,22,03,17,6.40
2014,10,22,03,18,6.40
2014,10,22,03,19,6.40
2014,10,22,03,20,9.60
2014,10,22,03,21,9.60
2014,10,22,03,22,8.10
2014,10,22,03,23,17.70
2014,10,22,03,24,11.30
2014,10,22,03,25,6.40
2014,10,22,03,26,9.60
2014,10,22,03,27,8.10
2014,10,22,03,28,6.40
2014,10,22,03,29,9.60
2014,10,22,03,30,9.60
2014,10,22,03,31,6.40
2014,10,22,03,32,6.40
2014,10,22,03,33,4.80
2014,10,22,03,34,1.60
2014,10,22,03,35,1.60
2014,10,22,03,36,1.60
2014,10,22,03,37,3.20
2014,10,22,03,38,1.60
2014,10,22,03,39,1.60
2014,10,22,03,40,1.60
2014,10,22,03,41,3.20
2014,10,22,03,42,3.20
2014,10,22,03,43,3.20
2014,10,22,03,44,1.60
2014,10,22,03,46,1.60
2014,10,22,03,47,1.60
2014,10,22,03,48,1.60
2014,10,22,03,49,1.60
2014,10,22,03,50,1.60
2014,10,22,03,51,3.20
2014,10,22,03,52,3.20
2014,10,22,03,53,3.20
2014,10,22,03,54,3.20
2014,10,22,03,55,3.20
2014,10,22,03,56,3.20
2014,10,22,03,57,3.20
2014,10,22,03,58,3.20
2014,10,22,03,59,3.20
2014,10,22,04,00,3.20
2014,10,22,04,01,3.20
2014,10,22,04,02,1.60
2014,10,22,04,03,1.60
2014,10,22,04,04,1.60
2014,10,22,04,05,1.60
2014,10,22,04,06,1.60
2014,10,22,04,07,1.60
2014,10,22,04,08,1.60
2014,10,22,04,09,1.60
2014,10,22,04,10,1.60
2014,10,22,04,11,3.20
2014,10,22,04,12,1.60
2014,10,22,04,13,1.60
2014,10,22,04,14,1.60
2014,10,22,04,15,1.60
2014,10,22,04,16,3.20
2014,10,22,04,17,1.60
2014,10,22,04,18,1.60
2014,10,22,04,19,3.20
2014,10,22,04,20,3.20
2014,10,22,04,21,1.60
2014,10,22,04,22,3.20
2014,10,22,04,23,3.20
2014,10,22,04,24,3.20
2014,10,22,04,25,3.20
2014,10,22,04,26,3.20
2014,10,22,04,27,3.20
2014,10,22,04,28,4.80
2014,10,22,04,29,3.20
2014,10,22,04,30,3.20
2014,10,22,04,31,3.20
2014,10,22,04,32,1.60
2014,10,22,04,33,3.20
2014,10,22,04,34,1.60
2014,10,22,04,35,1.60
2014,10,22,04,36,1.60
2014,10,22,04,37,1.60
2014,10,22,04,38,1.60
2014,10,22,04,39,1.60
2014,10,22,04,40,1.60
2014,10,22,04,41,3.20
2014,10,22,04,42,4.80
2014,10,22,04,43,4.80
2014,10,22,04,44,4.80
2014,10,22,04,45,6.40
2014,10,22,04,46,1.60
2014,10,22,04,47,4.80
2014,10,22,04,48,9.60
2014,10,22,04,49,12.90
2014,10,22,04,50,8.10
2014,10,22,04,51,9.60
2014,10,22,04,52,9.60
2014,10,22,04,53,8.10
2014,10,22,04,54,9.60
2014,10,22,04,55,6.40
2014,10,22,04,56,4.80
2014,10,22,04,57,4.80
2014,10,22,04,58,3.20
2014,10,22,04,59,12.90
2014,10,22,05,00,11.30
2014,10,22,05,01,4.80
2014,10,22,05,02,12.90
2014,10,22,05,03,9.60
2014,10,22,05,04,6.40
2014,10,22,05,05,6.40
2014,10,22,05,06,6.40
2014,10,22,05,07,4.80
2014,10,22,05,08,4.80
2014,10,22,05,09,1.60
2014,10,22,05,10,1.60
2014,10,22,05,11,3.20
2014,10,22,05,12,8.10
2014,10,22,05,13,4.80
2014,10,22,05,14,6.40
2014,10,22,05,15,3.20
2014,10,22,05,16,3.20
2014,10,22,05,17,4.80
2014,10,22,05,18,3.20
2014,10,22,05,19,6.40
2014,10,22,05,20,3.20
2014,10,22,05,21,1.60
2014,10,22,05,22,1.60
2014,10,22,05,23,1.60
2014,10,22,05,24,1.60
2014,10,22,05,25,1.60
2014,10,22,05,26,3.20
2014,10,22,05,27,1.60
2014,10,22,05,28,1.60
2014,10,22,05,29,3.20
2014,10,22,05,30,3.20
2014,10,22,05,31,3.20
2014,10,22,05,32,1.60
2014,10,22,05,33,3.20
2014,10,22,05,34,3.20
2014,10,22,05,35,3.20
2014,10,22,05,36,4.80
2014,10,22,05,37,4.80
2014,10,22,05,38,6.40
2014,10,22,05,39,6.40
2014,10,22,05,40,4.80
2014,10,22,05,41,4.80
2014,10,22,05,42,3.20
2014,10,22,05,43,4.80
2014,10,22,05,44,1.60
2014,10,22,05,45,1.60
2014,10,22,05,46,3.20
2014,10,22,05,47,1.60
2014,10,22,05,48,1.60
2014,10,22,05,49,1.60
2014,10,22,05,50,1.60
2014,10,22,05,51,3.20
2014,10,22,05,52,3.20
2014,10,22,05,53,4.80
2014,10,22,05,54,4.80
2014,10,22,05,55,3.20
2014,10,22,05,56,3.20
2014,10,22,05,57,3.20
2014,10,22,05,58,3.20
2014,10,22,05,59,3.20
2014,10,22,06,00,1.60
2014,10,22,06,01,1.60
2014,10,22,06,02,1.60
2014,10,22,06,03,1.60
2014,10,22,06,04,1.60
2014,10,22,06,05,1.60
2014,10,22,06,06,1.60
2014,10,22,06,07,1.60
2014,10,22,06,08,1.60
2014,10,22,06,09,3.20
2014,10,22,06,10,1.60
2014,10,22,06,11,3.20
2014,10,22,06,12,3.20
2014,10,22,06,13,6.40
2014,10,22,06,14,4.80
2014,10,22,06,15,6.40
2014,10,22,06,16,6.40
2014,10,22,06,17,6.40
2014,10,22,06,18,6.40
2014,10,22,06,19,4.80
2014,10,22,06,20,4.80
2014,10,22,06,21,6.40
2014,10,22,06,22,6.40
2014,10,22,06,23,4.80
2014,10,22,06,24,4.80
2014,10,22,06,25,6.40
2014,10,22,06,26,6.40
2014,10,22,06,27,6.40
2014,10,22,06,28,6.40
2014,10,22,06,29,8.10
2014,10,22,06,30,8.10
2014,10,22,06,31,6.40
2014,10,22,06,32,6.40
2014,10,22,06,33,8.10
2014,10,22,06,34,4.80
2014,10,22,06,35,6.40
2014,10,22,06,36,9.60
2014,10,22,06,37,6.40
2014,10,22,06,38,9.60
2014,10,22,06,39,8.10
2014,10,22,06,40,6.40
2014,10,22,06,41,6.40
2014,10,22,06,42,6.40
2014,10,22,06,43,4.80
2014,10,22,06,44,4.80
2014,10,22,06,45,4.80
2014,10,22,06,46,3.20
2014,10,22,06,47,4.80
2014,10,22,06,48,6.40
2014,10,22,06,49,4.80
2014,10,22,06,50,6.40
2014,10,22,06,51,6.40
2014,10,22,06,52,4.80
2014,10,22,06,53,4.80
2014,10,22,06,54,6.40
2014,10,22,06,55,3.20
2014,10,22,06,56,6.40
2014,10,22,06,57,3.20
2014,10,22,06,58,3.20
2014,10,22,06,59,3.20
2014,10,22,07,00,4.80
2014,10,22,07,01,4.80
2014,10,22,07,02,6.40
2014,10,22,07,03,4.80
2014,10,22,07,04,4.80
2014,10,22,07,05,3.20
2014,10,22,07,06,4.80
2014,10,22,07,07,3.20
2014,10,22,07,08,1.60
2014,10,22,07,09,3.20
2014,10,22,07,10,3.20
2014,10,22,07,11,3.20
2014,10,22,07,12,3.20
2014,10,22,07,13,1.60
2014,10,22,07,14,1.60
2014,10,22,07,17,1.60
2014,10,22,07,18,1.60
2014,10,22,07,19,1.60
2014,10,22,07,20,1.60
2014,10,22,07,21,1.60
2014,10,22,07,22,1.60
2014,10,22,07,23,1.60
2014,10,22,07,24,1.60
2014,10,22,07,25,1.60
2014,10,22,07,26,1.60
2014,10,22,07,27,1.60
2014,10,22,07,28,1.60
2014,10,22,07,29,1.60
2014,10,22,07,30,1.60
2014,10,22,07,31,1.60
2014,10,22,07,32,1.60
2014,10,22,07,33,1.60
2014,10,22,07,34,1.60
2014,10,22,07,35,1.60
2014,10,22,07,36,1.60
2014,10,22,07,37,1.60
2014,10,22,07,38,1.60
2014,10,22,07,39,1.60
2014,10,22,07,40,3.20
2014,10,22,07,41,3.20
2014,10,22,07,42,1.60
2014,10,22,07,43,3.20
2014,10,22,07,44,3.20
2014,10,22,07,45,1.60
2014,10,22,07,46,1.60
2014,10,22,07,47,1.60
2014,10,22,07,49,1.60
2014,10,22,07,50,1.60
2014,10,22,07,51,3.20
2014,10,22,07,52,3.20
2014,10,22,07,53,3.20
2014,10,22,07,54,3.20
2014,10,22,07,55,4.80
2014,10,22,07,56,4.80
2014,10,22,07,57,4.80
2014,10,22,07,58,6.40
2014,10,22,07,59,6.40
2014,10,22,08,00,4.80
2014,10,22,08,01,6.40
2014,10,22,08,02,6.40
2014,10,22,08,03,4.80
2014,10,22,08,04,4.80
2014,10,22,08,05,4.80
2014,10,22,08,06,9.60
2014,10,22,08,07,4.80
2014,10,22,08,08,6.40
2014,10,22,08,09,4.80
2014,10,22,08,10,4.80
2014,10,22,08,11,4.80
2014,10,22,08,12,3.20
2014,10,22,08,13,8.10
2014,10,22,08,14,3.20
2014,10,22,08,15,6.40
2014,10,22,08,16,6.40
2014,10,22,08,17,4.80
2014,10,22,08,18,4.80
2014,10,22,08,19,1.60
2014,10,22,08,20,4.80
2014,10,22,08,21,4.80
2014,10,22,08,22,4.80
2014,10,22,08,23,4.80
2014,10,22,08,24,3.20
2014,10,22,08,25,4.80
2014,10,22,08,26,3.20
2014,10,22,08,27,3.20
2014,10,22,08,28,3.20
2014,10,22,08,29,1.60
2014,10,22,08,30,3.20
2014,10,22,08,31,4.80
2014,10,22,08,32,3.20
2014,10,22,08,33,3.20
2014,10,22,08,34,4.80
2014,10,22,08,35,4.80
2014,10,22,08,36,4.80
2014,10,22,08,37,4.80
2014,10,22,08,38,4.80
2014,10,22,08,39,3.20
2014,10,22,08,40,3.20
2014,10,22,08,41,3.20
2014,10,22,08,42,1.60
2014,10,22,08,43,1.60
2014,10,22,08,44,1.60
2014,10,22,08,45,1.60
2014,10,22,08,47,1.60
2014,10,22,08,48,1.60
2014,10,22,08,49,1.60
2014,10,22,08,52,1.60
2014,10,22,08,53,1.60
2014,10,22,08,54,1.60
2014,10,22,08,55,1.60
2014,10,22,08,56,3.20
2014,10,22,08,57,1.60
2014,10,22,08,58,1.60
2014,10,22,09,00,1.60
2014,10,22,09,01,3.20
2014,10,22,09,02,3.20
2014,10,22,09,03,3.20
2014,10,22,09,04,3.20
2014,10,22,09,05,1.60
2014,10,22,09,06,1.60
2014,10,22,09,07,1.60
2014,10,22,09,08,1.60
2014,10,22,09,09,1.60
2014,10,22,09,10,1.60
2014,10,22,09,11,3.20
2014,10,22,09,12,3.20
2014,10,22,09,13,6.40
2014,10,22,09,14,4.80
2014,10,22,09,15,4.80
2014,10,22,09,16,4.80
2014,10,22,09,17,4.80
2014,10,22,09,18,3.20
2014,10,22,09,19,3.20
2014,10,22,09,20,4.80
2014,10,22,09,21,4.80
2014,10,22,09,22,8.10
2014,10,22,09,23,6.40
2014,10,22,09,24,4.80
2014,10,22,09,25,4.80
2014,10,22,09,26,8.10
2014,10,22,09,27,8.10
2014,10,22,09,28,6.40
2014,10,22,09,29,6.40
2014,10,22,09,30,6.40
2014,10,22,09,31,4.80
2014,10,22,09,32,6.40
2014,10,22,09,33,6.40
2014,10,22,09,34,8.10
2014,10,22,09,35,8.10
2014,10,22,09,36,4.80
2014,10,22,09,37,4.80
2014,10,22,09,38,6.40
2014,10,22,09,39,8.10
2014,10,22,09,40,6.40
2014,10,22,09,41,4.80
2014,10,22,09,42,6.40
2014,10,22,09,43,9.60
2014,10,22,09,44,8.10
2014,10,22,09,45,8.10
2014,10,22,09,46,9.60
2014,10,22,09,47,9.60
2014,10,22,09,48,8.10
2014,10,22,09,49,8.10
2014,10,22,09,50,6.40
2014,10,22,09,51,4.80
2014,10,22,09,52,8.10
2014,10,22,09,53,8.10
2014,10,22,09,54,8.10
2014,10,22,09,55,8.10
2014,10,22,09,56,6.40
2014,10,22,09,57,4.80
2014,10,22,09,58,8.10
2014,10,22,09,59,6.40
2014,10,22,10,00,4.80
2014,10,22,10,01,4.80
2014,10,22,10,02,6.40
2014,10,22,10,03,6.40
2014,10,22,10,04,8.10
2014,10,22,10,05,4.80
2014,10,22,10,06,4.80
2014,10,22,10,07,4.80
2014,10,22,10,08,6.40
2014,10,22,10,09,6.40
2014,10,22,10,10,4.80
2014,10,22,10,11,4.80
2014,10,22,10,12,4.80
2014,10,22,10,13,1.60
2014,10,22,10,14,1.60
2014,10,22,10,15,1.60
2014,10,22,10,16,3.20
2014,10,22,10,17,1.60
2014,10,22,10,18,3.20
2014,10,22,10,19,3.20
2014,10,22,10,20,3.20
2014,10,22,10,21,4.80
2014,10,22,10,22,3.20
2014,10,22,10,23,3.20
2014,10,22,10,24,3.20
2014,10,22,10,25,1.60
2014,10,22,10,26,3.20
2014,10,22,10,27,3.20
2014,10,22,10,28,3.20
2014,10,22,10,29,3.20
2014,10,22,10,30,1.60
2014,10,22,10,31,3.20
2014,10,22,10,32,3.20
2014,10,22,10,33,1.60
2014,10,22,10,34,3.20
2014,10,22,10,35,3.20
2014,10,22,10,36,3.20
2014,10,22,10,37,1.60
2014,10,22,10,38,3.20
2014,10,22,10,39,1.60
2014,10,22,10,40,1.60
2014,10,22,10,41,1.60
2014,10,22,10,42,1.60
2014,10,22,10,43,1.60
2014,10,22,10,44,1.60
2014,10,22,10,45,1.60
2014,10,22,10,46,3.20
2014,10,22,10,47,3.20
2014,10,22,10,48,3.20
2014,10,22,10,49,1.60
2014,10,22,10,50,1.60
2014,10,22,10,51,1.60
2014,10,22,10,52,1.60
2014,10,22,10,53,1.60
2014,10,22,10,54,1.60
2014,10,22,10,55,1.60
2014,10,22,10,56,1.60
2014,10,22,10,57,1.60
2014,10,22,10,58,1.60
2014,10,22,10,59,1.60
2014,10,22,11,00,1.60
2014,10,22,11,02,1.60
2014,10,22,11,04,1.60
2014,10,22,11,05,1.60
2014,10,22,11,06,3.20
2014,10,22,11,07,3.20
2014,10,22,11,08,1.60
2014,10,22,11,10,1.60
2014,10,22,11,11,1.60
2014,10,22,11,12,1.60
2014,10,22,11,13,1.60
2014,10,22,11,14,3.20
2014,10,22,11,15,1.60
2014,10,22,11,16,1.60
2014,10,22,11,17,1.60
2014,10,22,11,18,1.60
2014,10,22,11,19,1.60
2014,10,22,11,20,1.60
2014,10,22,11,21,1.60
2014,10,22,11,22,3.20
2014,10,22,11,23,3.20
2014,10,22,11,24,3.20
2014,10,22,11,25,3.20
2014,10,22,11,26,1.60
2014,10,22,11,27,3.20
2014,10,22,11,28,3.20
2014,10,22,11,29,1.60
2014,10,22,11,30,1.60
2014,10,22,11,32,1.60
2014,10,22,11,33,1.60
2014,10,22,11,34,1.60
2014,10,22,11,35,1.60
2014,10,22,11,36,3.20
2014,10,22,11,37,1.60
2014,10,22,11,38,1.60
2014,10,22,11,39,1.60
2014,10,22,11,40,1.60
2014,10,22,11,41,3.20
2014,10,22,11,42,3.20
2014,10,22,11,43,3.20
2014,10,22,11,44,3.20
2014,10,22,11,45,3.20
2014,10,22,11,46,3.20
2014,10,22,11,47,3.20
2014,10,22,11,48,3.20
2014,10,22,11,49,4.80
2014,10,22,11,50,3.20
2014,10,22,11,51,3.20
2014,10,22,11,52,4.80
2014,10,22,11,53,4.80
2014,10,22,11,54,3.20
2014,10,22,11,55,3.20
2014,10,22,11,56,3.20
2014,10,22,11,57,4.80
2014,10,22,11,58,3.20
2014,10,22,11,59,3.20
2014,10,22,12,00,3.20
2014,10,22,12,01,3.20
2014,10,22,12,02,1.60
2014,10,22,12,03,3.20
2014,10,22,12,04,1.60
2014,10,22,12,05,3.20
2014,10,22,12,06,4.80
2014,10,22,12,07,3.20
2014,10,22,12,08,3.20
2014,10,22,12,09,3.20
2014,10,22,12,10,4.80
2014,10,22,12,11,6.40
2014,10,22,12,12,4.80
2014,10,22,12,13,3.20
2014,10,22,12,14,3.20
2014,10,22,12,15,1.60
2014,10,22,12,16,4.80
2014,10,22,12,17,3.20
2014,10,22,12,18,4.80
2014,10,22,12,19,3.20
2014,10,22,12,20,3.20
2014,10,22,12,21,3.20
2014,10,22,12,22,3.20
2014,10,22,12,23,3.20
2014,10,22,12,24,3.20
2014,10,22,12,25,4.80
2014,10,22,12,26,3.20
2014,10,22,12,27,3.20
2014,10,22,12,28,3.20
2014,10,22,12,29,3.20
2014,10,22,12,30,3.20
2014,10,22,12,31,3.20
2014,10,22,12,32,3.20
2014,10,22,12,33,3.20
2014,10,22,12,34,3.20
2014,10,22,12,35,3.20
2014,10,22,12,36,3.20
2014,10,22,12,37,4.80
2014,10,22,12,38,3.20
2014,10,22,12,39,3.20
2014,10,22,12,40,3.20
2014,10,22,12,41,3.20
2014,10,22,12,42,3.20
2014,10,22,12,43,3.20
2014,10,22,12,44,1.60
2014,10,22,12,45,3.20
2014,10,22,12,46,1.60
2014,10,22,12,47,3.20
2014,10,22,12,48,6.40
2014,10,22,12,49,6.40
2014,10,22,12,50,4.80
2014,10,22,12,51,3.20
2014,10,22,12,52,3.20
2014,10,22,12,53,3.20
2014,10,22,12,54,3.20
2014,10,22,12,55,3.20
2014,10,22,12,56,3.20
2014,10,22,12,57,4.80
2014,10,22,12,58,4.80
2014,10,22,12,59,4.80
2014,10,22,13,00,3.20
2014,10,22,13,01,4.80
2014,10,22,13,02,3.20
2014,10,22,13,03,4.80
2014,10,22,13,04,4.80
2014,10,22,13,05,4.80
2014,10,22,13,06,4.80
2014,10,22,13,07,3.20
2014,10,22,13,08,1.60
2014,10,22,13,09,4.80
2014,10,22,13,10,4.80
2014,10,22,13,11,4.80
2014,10,22,13,12,4.80
2014,10,22,13,13,6.40
2014,10,22,13,14,4.80
2014,10,22,13,15,6.40
2014,10,22,13,16,4.80
2014,10,22,13,17,4.80
2014,10,22,13,18,4.80
2014,10,22,13,19,4.80
2014,10,22,13,20,1.60
2014,10,22,13,21,6.40
2014,10,22,13,22,6.40
2014,10,22,13,23,4.80
2014,10,22,13,24,4.80
2014,10,22,13,25,3.20
2014,10,22,13,26,9.60
2014,10,22,13,27,9.60
2014,10,22,13,28,6.40
2014,10,22,13,29,6.40
2014,10,22,13,30,8.10
2014,10,22,13,31,6.40
2014,10,22,13,32,4.80
2014,10,22,13,33,6.40
2014,10,22,13,34,11.30
2014,10,22,13,35,9.60
2014,10,22,13,36,9.60
2014,10,22,13,37,6.40
2014,10,22,13,38,6.40
2014,10,22,13,39,4.80
2014,10,22,13,40,14.50
2014,10,22,13,41,12.90
2014,10,22,13,42,12.90
2014,10,22,13,43,12.90
2014,10,22,13,44,12.90
2014,10,22,13,45,14.50
2014,10,22,13,46,16.10
2014,10,22,13,47,16.10
2014,10,22,13,48,17.70
2014,10,22,13,49,14.50
2014,10,22,13,50,14.50
2014,10,22,13,51,11.30
2014,10,22,13,52,16.10
2014,10,22,13,53,16.10
2014,10,22,13,54,11.30
2014,10,22,13,55,14.50
2014,10,22,13,56,12.90
2014,10,22,13,57,14.50
2014,10,22,13,58,16.10
2014,10,22,13,59,19.30
2014,10,22,14,00,22.50
2014,10,22,14,01,19.30
2014,10,22,14,02,20.90
2014,10,22,14,03,22.50
2014,10,22,14,04,20.90
2014,10,22,14,05,17.70
2014,10,22,14,06,24.20
2014,10,22,14,07,20.90
2014,10,22,14,08,25.70
2014,10,22,14,09,20.90
2014,10,22,14,10,27.40
2014,10,22,14,11,32.20
2014,10,22,14,12,29.00
2014,10,22,14,13,25.70
2014,10,22,14,14,25.70
2014,10,22,14,15,30.60
2014,10,22,14,16,30.60
2014,10,22,14,17,30.60
2014,10,22,14,18,29.00
2014,10,22,14,19,27.40
2014,10,22,14,20,24.20
2014,10,22,14,21,30.60
2014,10,22,14,22,29.00
2014,10,22,14,23,27.40
2014,10,22,14,24,25.70
2014,10,22,14,25,25.70
2014,10,22,14,26,27.40
2014,10,22,14,27,25.70
2014,10,22,14,28,27.40
2014,10,22,14,29,30.60
2014,10,22,14,30,25.70
2014,10,22,14,31,32.20
2014,10,22,14,32,27.40
2014,10,22,14,33,27.40
2014,10,22,14,34,29.00
2014,10,22,14,35,22.50
2014,10,22,14,36,24.20
2014,10,22,14,37,22.50
2014,10,22,14,38,19.30
2014,10,22,14,39,19.30
2014,10,22,14,40,20.90
2014,10,22,14,41,16.10
2014,10,22,14,42,24.20
2014,10,22,14,43,20.90
2014,10,22,14,44,22.50
2014,10,22,14,45,24.20
2014,10,22,14,46,22.50
2014,10,22,14,47,24.20
2014,10,22,14,48,19.30
2014,10,22,14,49,20.90
2014,10,22,14,50,22.50
2014,10,22,14,51,19.30
2014,10,22,14,52,19.30
2014,10,22,14,53,19.30
2014,10,22,14,54,19.30
2014,10,22,14,55,25.70
2014,10,22,14,56,25.70
2014,10,22,14,57,22.50
2014,10,22,14,58,14.50
2014,10,22,14,59,12.90
2014,10,22,15,00,24.20
2014,10,22,15,01,19.30
2014,10,22,15,02,14.50
2014,10,22,15,03,20.90
2014,10,22,15,04,19.30
2014,10,22,15,05,12.90
2014,10,22,15,06,16.10
2014,10,22,15,07,14.50
2014,10,22,15,08,14.50
2014,10,22,15,09,16.10
2014,10,22,15,10,9.60
2014,10,22,15,11,14.50
2014,10,22,15,12,19.30
2014,10,22,15,13,16.10
2014,10,22,15,14,16.10
2014,10,22,15,15,24.20
2014,10,22,15,16,27.40
2014,10,22,15,17,20.90
2014,10,22,15,18,17.70
2014,10,22,15,19,14.50
2014,10,22,15,20,17.70
2014,10,22,15,21,16.10
2014,10,22,15,22,20.90
2014,10,22,15,23,20.90
2014,10,22,15,24,22.50
2014,10,22,15,25,22.50
2014,10,22,15,26,20.90
2014,10,22,15,27,30.60
2014,10,22,15,28,27.40
2014,10,22,15,29,24.20
2014,10,22,15,30,29.00
2014,10,22,15,31,37.00
2014,10,22,15,32,32.20
2014,10,22,15,33,32.20
2014,10,22,15,34,33.80
2014,10,22,15,35,27.40
2014,10,22,15,36,27.40
2014,10,22,15,37,32.20
2014,10,22,15,38,30.60
2014,10,22,15,39,38.60
2014,10,22,15,40,25.70
2014,10,22,15,41,38.60
2014,10,22,15,42,29.00
2014,10,22,15,43,25.70
2014,10,22,15,44,33.80
2014,10,22,15,45,35.40
2014,10,22,15,46,29.00
2014,10,22,15,47,33.80
2014,10,22,15,48,29.00
2014,10,22,15,49,29.00
2014,10,22,15,50,32.20
2014,10,22,15,51,32.20
2014,10,22,15,52,29.00
2014,10,22,15,53,29.00
2014,10,22,15,54,25.70
2014,10,22,15,55,25.70
2014,10,22,15,56,22.50
2014,10,22,15,57,14.50
2014,10,22,15,58,22.50
2014,10,22,15,59,24.20
2014,10,22,16,00,22.50
2014,10,22,16,01,20.90
2014,10,22,16,02,17.70
2014,10,22,16,03,16.10
2014,10,22,16,04,19.30
2014,10,22,16,05,14.50
2014,10,22,16,06,19.30
2014,10,22,16,07,17.70
2014,10,22,16,08,19.30
2014,10,22,16,09,19.30
2014,10,22,16,10,19.30
2014,10,22,16,11,25.70
2014,10,22,16,12,24.20
2014,10,22,16,13,25.70
2014,10,22,16,14,24.20
2014,10,22,16,15,22.50
2014,10,22,16,16,27.40
2014,10,22,16,17,22.50
2014,10,22,16,18,27.40
2014,10,22,16,19,24.20
2014,10,22,16,20,24.20
2014,10,22,16,21,20.90
2014,10,22,16,22,25.70
2014,10,22,16,23,24.20
2014,10,22,16,24,22.50
2014,10,22,16,25,22.50
2014,10,22,16,26,25.70
2014,10,22,16,27,27.40
2014,10,22,16,28,20.90
2014,10,22,16,29,27.40
2014,10,22,16,30,19.30
2014,10,22,16,31,25.70
2014,10,22,16,32,25.70
2014,10,22,16,33,24.20
2014,10,22,16,34,25.70
2014,10,22,16,35,16.10
2014,10,22,16,36,22.50
2014,10,22,16,37,20.90
2014,10,22,16,38,19.30
2014,10,22,16,39,25.70
2014,10,22,16,40,22.50
2014,10,22,16,41,22.50
2014,10,22,16,42,27.40
2014,10,22,16,43,22.50
2014,10,22,16,44,16.10
2014,10,22,16,45,17.70
2014,10,22,16,46,27.40
2014,10,22,16,47,24.20
2014,10,22,16,48,19.30
2014,10,22,16,49,24.20
2014,10,22,16,50,20.90
2014,10,22,16,51,22.50
2014,10,22,16,52,17.70
2014,10,22,16,53,20.90
2014,10,22,16,54,17.70
2014,10,22,16,55,16.10
2014,10,22,16,56,19.30
2014,10,22,16,57,14.50
2014,10,22,16,58,11.30
2014,10,22,16,59,12.90
2014,10,22,17,00,14.50
2014,10,22,17,01,14.50
2014,10,22,17,02,14.50
2014,10,22,17,03,19.30
2014,10,22,17,04,19.30
2014,10,22,17,05,16.10
2014,10,22,17,06,14.50
2014,10,22,17,07,11.30
2014,10,22,17,08,16.10
2014,10,22,17,09,12.90
2014,10,22,17,10,12.90
2014,10,22,17,11,16.10
2014,10,22,17,12,12.90
2014,10,22,17,13,16.10
2014,10,22,17,14,16.10
2014,10,22,17,15,14.50
2014,10,22,17,16,17.70
2014,10,22,17,17,12.90
2014,10,22,17,18,16.10
2014,10,22,17,19,20.90
2014,10,22,17,20,27.40
2014,10,22,17,21,20.90
2014,10,22,17,22,20.90
2014,10,22,17,23,22.50
2014,10,22,17,24,22.50
2014,10,22,17,25,22.50
2014,10,22,17,26,19.30
2014,10,22,17,27,14.50
2014,10,22,17,28,20.90
2014,10,22,17,29,14.50
2014,10,22,17,30,14.50
2014,10,22,17,31,14.50
2014,10,22,17,32,17.70
2014,10,22,17,33,19.30
2014,10,22,17,34,17.70
2014,10,22,17,35,17.70
2014,10,22,17,36,20.90
2014,10,22,17,37,16.10
2014,10,22,17,38,19.30
2014,10,22,17,39,16.10
2014,10,22,17,40,16.10
2014,10,22,17,41,16.10
2014,10,22,17,42,19.30
2014,10,22,17,43,17.70
2014,10,22,17,44,17.70
2014,10,22,17,45,17.70
2014,10,22,17,46,16.10
2014,10,22,17,47,16.10
2014,10,22,17,48,17.70
2014,10,22,17,49,19.30
2014,10,22,17,50,12.90
2014,10,22,17,51,11.30
2014,10,22,17,52,16.10
2014,10,22,17,53,17.70
2014,10,22,17,54,20.90
2014,10,22,17,55,19.30
2014,10,22,17,56,27.40
2014,10,22,17,57,25.70
2014,10,22,17,58,27.40